GFSNE_sfc_thetae_294.txt.gz
Theta_e
358 359 358 357 356 356 354 351 344 337 338 345 346 353 353 349 352 353 355 361 356 355 350 348 348 348 348 348 348 347 346 345 345 345 345 347 349 352
363 362 359 358 359 358 357 355 352 346 340 347 347 351 354 347 353 356 360 356 354 351 347 345 346 346 345 346 346 345 344 343 343 343 343 344 345 348
355 358 360 362 358 355 356 356 353 352 346 347 348 351 357 356 351 353 358 356 354 346 345 345 343 344 344 344 345 344 343 343 342 342 342 344 346 349
340 344 348 354 357 360 358 355 353 354 351 345 351 353 356 362 363 364 359 353 352 353 345 343 341 341 340 340 341 340 338 337 337 336 338 343 346 348
340 339 338 339 342 354 358 356 355 356 355 352 349 353 351 353 351 355 354 355 358 354 347 342 340 340 340 337 336 334 332 329 328 330 332 337 341 342
339 340 339 337 335 342 351 352 356 355 354 352 349 349 351 353 352 349 349 354 355 356 353 348 344 341 340 338 336 334 329 324 323 324 326 326 328 333
327 330 337 339 339 337 334 333 335 346 351 350 349 349 348 348 347 348 345 347 348 352 348 347 352 348 346 339 343 339 332 327 324 323 323 322 322 323
322 325 328 333 335 333 332 331 330 326 326 344 347 346 347 348 350 349 347 345 340 359 355 351 351 352 352 352 345 341 332 328 326 324 323 321 321 321
321 321 322 328 332 333 331 330 330 330 331 330 333 343 347 350 352 348 346 346 347 352 353 347 354 350 353 349 339 335 332 327 326 325 323 322 321 320
321 322 321 321 323 327 331 331 331 331 331 335 339 344 350 354 354 352 350 348 350 349 351 341 347 346 349 349 336 333 330 325 325 323 321 320 318 316
319 322 322 321 322 321 323 322 324 326 329 327 326 327 335 337 343 352 346 344 340 340 345 342 342 343 347 348 346 329 325 322 322 322 321 319 316 314
317 319 321 321 319 318 321 323 323 326 328 329 331 332 330 339 334 347 347 337 334 334 341 341 341 343 338 347 350 335 332 322 322 320 322 317 313 329
314 315 318 318 314 313 313 319 319 323 327 328 328 332 337 344 343 341 342 340 338 338 343 348 343 343 341 341 347 344 342 334 331 325 317 315 311 323
313 315 316 314 311 310 311 313 312 315 320 323 325 326 332 340 346 344 345 344 347 345 348 350 345 343 340 338 338 348 347 345 340 336 333 318 311 312
312 315 314 311 309 310 311 312 312 315 319 320 321 324 333 338 344 348 349 348 348 351 352 351 349 346 344 340 339 343 343 343 342 341 335 329 326 325
310 315 316 315 314 315 315 316 318 319 321 323 328 333 337 339 340 345 343 340 342 345 350 352 350 347 344 344 343 341 344 338 344 342 339 330 330 329
306 312 314 315 315 314 317 319 320 320 319 323 325 334 333 336 338 342 342 341 338 340 342 346 342 330 322 325 334 339 339 339 341 339 334 330 329 330
299 301 312 312 312 314 317 317 323 324 322 319 330 331 331 334 338 340 340 339 338 339 340 340 334 327 322 317 319 321 324 335 336 337 333 326 323 323
300 303 309 311 314 314 316 317 320 327 329 329 331 332 332 336 335 336 337 337 331 332 330 332 332 331 325 323 315 311 315 327 330 328 327 323 316 313
307 307 309 311 312 313 316 318 322 329 330 331 331 332 333 334 330 328 328 325 324 323 322 323 324 326 326 324 312 314 306 321 322 315 310 310 311 313
306 306 307 313 314 317 319 321 323 324 328 329 329 330 330 327 325 325 322 316 317 321 317 317 318 318 318 317 312 311 312 310 314 314 312 312 311 310
307 306 306 306 308 314 317 317 315 314 315 316 317 320 324 325 324 322 321 320 320 321 319 320 321 319 318 313 310 311 311 313 312 310 311 312 311 307
308 307 306 305 305 306 308 313 314 314 314 315 316 315 315 316 321 323 324 321 320 319 320 319 320 319 316 314 311 312 312 312 312 310 309 309 311 313

GFSNE_sfc_thetae_297.txt.gz
Theta_e
351 352 351 353 351 352 349 345 338 335 336 340 337 344 343 343 346 352 348 353 351 349 347 346 346 346 347 348 349 348 347 347 346 345 345 346 348 349
336 338 348 353 353 353 352 350 347 342 338 344 342 342 344 346 345 348 348 353 351 348 346 344 344 345 345 345 345 345 344 344 343 343 342 342 343 345
336 334 334 341 345 350 354 352 348 347 342 347 346 346 348 350 353 346 349 349 348 346 345 344 342 342 342 343 344 343 343 343 342 342 342 342 343 345
329 334 335 336 333 333 335 348 352 351 346 343 347 348 347 348 349 351 352 351 346 347 344 342 341 339 338 338 339 339 338 339 339 339 338 339 342 345
325 323 323 326 332 333 331 330 331 346 351 347 345 350 351 350 347 347 348 350 352 351 346 342 340 338 337 335 334 333 331 331 332 332 331 331 336 341
320 320 320 321 321 325 331 330 330 340 343 346 347 347 348 348 347 346 345 348 349 353 353 348 345 341 338 336 335 334 329 326 324 323 324 325 325 333
317 319 321 323 327 327 325 326 330 325 324 322 323 329 340 345 344 345 343 344 345 346 348 350 348 344 344 338 341 338 332 329 325 321 321 322 322 323
313 315 316 322 322 324 326 329 330 328 324 321 319 317 318 327 344 345 343 340 338 350 348 343 345 343 345 344 340 338 332 330 327 323 321 321 321 321
312 313 314 318 320 319 321 323 324 328 330 326 323 321 321 323 330 340 343 344 343 347 344 341 345 344 348 348 337 333 330 329 327 325 322 321 321 319
311 313 314 315 316 318 317 317 317 318 322 328 327 326 327 328 329 330 338 343 346 347 348 340 342 339 341 344 336 333 330 327 325 323 321 320 318 316
309 312 314 314 317 318 317 316 317 317 321 321 323 324 324 323 324 323 320 333 337 341 345 340 342 340 340 341 342 330 327 324 322 321 321 319 316 315
308 309 314 315 315 316 316 315 314 315 318 319 322 324 324 325 324 325 324 322 331 332 339 337 339 335 332 339 341 343 332 319 318 317 319 318 318 326
308 308 309 312 312 312 312 316 316 318 318 316 316 318 321 327 327 328 332 329 327 337 335 335 333 334 335 335 337 338 334 327 326 322 316 317 314 323
307 308 308 309 308 309 311 313 312 313 314 314 314 315 317 319 322 328 333 341 345 341 339 340 337 336 333 332 332 337 338 338 334 333 330 321 314 314
309 309 309 307 306 308 310 311 312 313 313 312 311 312 315 319 322 325 338 338 338 338 341 341 342 340 338 335 332 334 335 341 337 336 333 329 327 322
309 305 306 308 309 311 313 314 314 313 312 311 311 314 317 320 320 322 330 333 337 339 343 345 345 340 339 340 339 337 337 336 338 339 334 332 331 329
305 302 301 304 307 312 314 314 314 314 313 314 314 314 317 322 325 329 331 333 332 332 335 335 328 330 325 334 338 339 337 335 336 339 337 331 329 329
308 306 304 303 307 312 313 314 315 317 317 318 316 315 317 318 322 327 329 329 330 333 334 333 323 322 318 317 320 323 322 325 333 337 337 332 327 327
306 306 305 305 307 311 313 313 313 315 317 318 320 317 314 316 321 325 327 330 329 333 333 332 329 329 323 323 312 311 316 318 330 328 328 323 319 313
307 306 306 306 306 310 311 312 313 314 315 317 321 322 323 323 324 325 327 328 327 322 322 323 325 327 328 324 312 312 306 315 324 315 309 310 311 313
307 306 307 306 307 308 311 315 315 316 317 320 321 322 323 325 325 327 327 317 318 319 317 316 317 319 318 317 311 310 310 309 315 313 311 311 309 309
307 306 307 306 306 307 308 310 311 315 315 315 314 316 318 322 323 323 321 320 319 318 316 317 319 317 315 312 309 309 310 311 311 310 310 311 311 306
305 304 304 304 306 306 306 308 309 309 312 314 316 316 316 316 317 320 321 320 319 317 316 316 316 315 313 312 310 309 309 310 310 308 308 310 311 311

GFSNE_sfc_thetae_300.txt.gz
Theta_e
334 333 335 342 348 348 346 343 342 337 338 341 336 342 344 344 346 344 348 349 349 345 343 343 343 344 344 346 347 347 347 348 348 348 347 348 349 351
325 327 332 334 335 338 345 348 343 343 337 343 345 344 345 348 350 347 346 346 346 345 343 341 341 342 342 342 344 344 344 344 344 344 343 342 343 344
321 321 323 326 328 331 334 335 337 342 340 342 346 347 345 346 348 350 349 345 346 344 342 342 340 339 340 340 340 341 342 342 342 342 342 341 341 342
317 317 317 320 318 319 323 329 330 330 333 332 336 345 345 347 348 345 349 353 347 346 343 342 340 338 337 336 336 336 335 336 338 338 339 340 340 341
316 316 316 317 316 317 318 319 322 330 328 325 326 334 342 344 347 346 346 349 352 350 343 340 339 338 335 334 333 330 328 328 330 331 332 334 335 337
313 313 313 313 313 315 317 317 319 320 324 327 329 329 333 344 347 345 344 345 346 351 350 345 342 340 338 335 333 331 326 323 323 324 325 324 324 327
310 311 312 315 319 319 316 316 317 317 318 320 321 323 322 322 323 335 339 341 344 343 345 346 346 347 346 338 340 336 330 327 324 322 321 319 319 321
308 309 309 313 313 318 320 322 321 316 315 317 322 322 322 321 318 317 327 330 328 344 342 342 343 341 344 342 339 334 330 328 326 324 321 319 318 319
308 308 308 310 312 311 315 319 320 321 322 319 315 317 321 324 323 316 322 326 328 335 338 336 344 343 347 347 334 331 328 326 325 325 323 320 318 317
308 309 308 308 309 310 310 312 314 316 316 318 317 317 319 324 326 325 323 322 326 332 336 333 339 339 346 345 336 333 329 326 324 323 322 319 316 314
310 310 311 310 313 313 310 309 312 314 319 320 321 320 320 321 321 319 317 318 317 318 326 338 339 341 341 341 341 331 328 325 323 323 321 318 314 312
310 310 313 312 312 311 309 308 307 310 315 317 317 318 320 320 322 321 319 315 316 316 320 328 336 339 329 338 341 337 335 320 316 315 316 315 311 325
308 308 310 311 310 308 309 308 308 311 314 316 317 318 318 316 316 318 322 322 318 317 323 331 335 334 332 331 333 335 335 328 327 318 310 310 311 324
307 309 310 309 307 305 306 308 308 310 311 313 313 313 314 316 317 318 320 324 327 324 326 327 327 332 331 329 332 333 335 333 332 330 326 315 311 313
309 310 310 308 306 306 308 308 308 307 308 311 312 313 314 316 317 317 319 320 322 323 330 333 334 334 336 333 332 331 331 337 335 334 331 327 325 322
310 308 311 311 309 309 309 309 309 309 309 311 312 313 315 314 313 315 314 316 318 323 334 337 337 337 335 336 337 335 333 332 337 337 335 332 331 328
304 307 309 308 307 307 309 313 313 314 313 314 313 312 312 312 312 313 315 317 315 318 324 330 331 338 337 333 335 338 338 336 335 337 334 331 330 330
304 306 307 307 307 307 309 311 314 315 315 314 314 314 314 314 313 314 317 319 319 321 325 327 321 321 319 318 319 333 332 333 335 337 338 334 330 329
304 305 306 307 307 307 308 309 310 313 315 315 315 314 315 316 314 314 317 320 320 322 324 326 328 327 323 323 316 312 322 322 329 330 329 327 325 317
303 303 303 305 307 306 307 308 309 311 313 313 314 315 315 317 317 313 313 314 318 321 323 328 329 328 326 325 314 311 307 317 324 319 311 309 311 314
304 303 301 302 304 306 305 307 308 308 310 311 315 316 318 319 319 319 319 312 316 322 322 325 325 323 319 317 311 308 309 309 314 315 310 310 309 309
304 302 302 301 300 302 303 304 306 307 308 309 310 313 314 317 320 321 323 323 323 324 322 317 318 318 316 314 309 308 308 311 311 311 311 312 312 308
305 303 301 300 300 300 301 301 302 306 307 307 308 308 309 312 314 319 321 320 317 316 316 315 315 316 314 312 310 309 309 309 309 308 307 309 309 309

GFSNE_sfc_thetae_306.txt.gz
Theta_e
321 321 321 320 320 321 323 325 323 315 317 330 333 345 341 343 347 347 354 351 349 347 343 342 342 343 344 347 348 348 349 350 350 350 351 353 355 357
317 318 316 316 317 317 317 320 322 319 315 322 324 328 332 334 338 344 344 345 347 345 343 341 340 341 341 342 343 343 343 344 345 345 346 346 347 349
316 315 315 316 313 313 314 314 314 315 313 315 319 321 323 327 334 338 339 341 347 344 343 342 339 338 338 339 339 340 341 341 342 343 343 344 344 345
314 314 313 313 313 314 312 313 313 314 313 311 315 317 320 324 326 332 336 340 348 347 343 341 339 338 335 335 334 334 334 335 337 338 340 341 342 343
314 313 313 313 311 311 312 311 312 313 313 311 310 315 317 320 321 325 328 335 338 346 344 342 339 337 335 333 331 328 327 327 329 330 332 334 337 340
315 314 314 313 312 312 313 314 313 312 311 309 308 309 312 316 319 318 320 329 331 333 339 341 339 339 338 336 333 331 325 322 321 322 324 325 327 331
314 314 313 314 318 318 314 314 313 310 309 308 307 308 308 308 311 316 317 322 327 331 333 332 333 336 340 341 342 337 330 326 323 320 320 319 320 323
313 314 312 315 314 316 316 316 315 311 310 309 308 307 308 310 312 311 312 315 314 327 329 328 334 332 341 345 337 335 331 329 327 324 321 319 319 320
314 313 313 314 315 314 314 315 315 316 316 312 309 309 309 310 312 312 312 312 313 320 322 320 327 327 332 334 327 326 326 326 326 324 322 320 318 318
316 315 313 313 313 314 313 311 311 312 312 312 312 311 312 312 313 314 314 315 317 319 322 315 323 323 328 330 328 325 324 323 324 324 321 319 316 315
316 315 313 313 314 314 311 309 309 310 314 315 315 315 315 316 316 314 311 311 310 313 318 316 320 322 326 328 331 326 325 323 323 323 322 319 314 312
314 314 313 313 312 311 310 308 306 309 310 310 310 311 312 314 315 315 315 311 312 311 317 316 317 320 317 326 328 330 334 326 320 319 318 317 312 328
311 311 312 311 309 308 307 309 310 311 312 311 309 309 310 311 313 315 316 317 314 313 319 319 319 319 319 319 323 325 330 334 342 338 311 310 310 325
311 311 311 309 306 306 308 310 310 312 313 310 308 307 307 308 312 315 318 320 320 318 321 320 317 317 318 317 318 324 326 328 334 340 338 316 308 311
312 311 311 307 305 308 308 310 310 312 311 310 309 309 310 312 313 314 317 318 319 320 321 320 318 317 318 316 317 320 321 325 334 340 339 332 330 325
311 310 310 308 308 308 308 309 309 309 311 309 311 313 315 313 312 314 313 315 314 315 320 320 319 319 316 317 316 316 324 325 335 336 340 335 334 330
308 309 308 307 306 306 305 306 307 308 309 309 309 311 312 313 314 315 315 314 312 312 313 316 318 319 320 318 315 318 317 323 332 335 337 332 332 331
307 308 307 307 305 305 303 304 304 306 307 310 309 309 309 310 311 313 315 314 312 312 313 314 315 316 317 320 322 319 320 321 327 334 335 332 333 333
307 308 307 308 306 305 304 303 303 305 306 308 309 309 309 309 309 310 313 314 314 314 314 315 315 313 311 310 319 320 323 326 329 330 333 336 333 335
308 309 309 309 308 307 305 303 304 304 304 305 308 309 309 309 306 308 310 311 311 314 315 316 316 315 314 314 316 324 309 325 326 327 325 317 315 316
310 309 310 310 309 309 307 305 304 303 304 304 306 307 308 308 307 308 310 307 308 312 314 314 320 320 326 326 320 317 314 311 315 332 320 318 315 314
313 311 311 311 311 310 309 306 304 304 304 303 305 306 307 308 307 307 310 309 310 310 314 318 322 320 320 319 319 321 314 313 312 311 312 315 317 313
313 313 311 311 312 311 310 307 304 304 304 303 302 304 306 306 307 308 311 309 309 309 309 314 319 321 318 320 318 312 311 312 313 310 309 311 313 314